Regional Weather Roundup
Issued by NWS

Home | Current Version | Previous Version | Text Only | Print | Product List | Glossary On
Versions: 1 2 3 4 5 6 7 8 9 10 11 12 13 14 15 16 17 18 19 20 21 22 23 24 25 26 27 28 29 30 31 32 33 34 35 36 37 38 39 40 41 42 43 44 45 46 47 48 49 50
778
ASUS46 KPQR 302010
RWROR

OREGON REGIONAL WEATHER ROUNDUP
NATIONAL WEATHER SERVICE PORTLAND OR
100 PM PDT SAT APR 30 2016

NOTE: "FAIR" INDICATES FEW OR NO CLOUDS BELOW 12,000 FEET WITH
NO SIGNIFICANT WEATHER AND/OR OBSTRUCTIONS TO VISIBILITY.

ORZ001>013-302100-
NORTHWEST OREGON


CITY           SKY/WX    TMP DP  RH WIND       PRES   REMARKS
ASTORIA        PTSUNNY   59  47  64 NW14      30.36F HAZE
NEWPORT        SUNNY     55  46  71 N15G26    30.36S
PORTLAND       MOSUNNY   58  43  57 CALM      30.34F
VANCOUVER WA   SUNNY     57  44  62 SE5       30.33F
SCAPPOOSE      SUNNY     60  47  61 E8        30.32F
HILLSBORO      MOSUNNY   59  44  57 VRB3      30.32F
AURORA         MOSUNNY   57  44  62 NE7       30.34F
MCMINNVILLE    SUNNY     58  45  62 SE6       30.33F
SALEM          MOSUNNY   58  43  57 NE8       30.32F
CORVALLIS        N/A     61  45  55 NE12G17   30.33F
EUGENE         MOSUNNY   60  45  57 N10       30.31F
$$

ORZ021-028-302100-
SOUTHWEST OREGON


CITY           SKY/WX    TMP DP  RH WIND       PRES   REMARKS
NORTH BEND     SUNNY     57  46  67 N22       30.29F
BROOKINGS      SUNNY     63  46  54 NW16      30.14F
ROSEBURG       MOSUNNY   61  42  49 NE9       30.26F
SEXTON SUMMIT  SUNNY     49  40  71 VRB7      30.19F
MEDFORD        MOSUNNY   61  39  44 VRB5      30.18F
$$

ORZ014>016-041-302100-
COLUMBIA GORGE


CITY           SKY/WX    TMP DP  RH WIND       PRES   REMARKS
TROUTDALE      SUNNY     59  43  55 VRB3      30.33F
THE DALLES     SUNNY     69  36  29 VRB5      30.23F
$$

ORZ029>031-041-044-049-050-061>064-502-503-505>511-302100-
EASTERN OREGON


CITY           SKY/WX    TMP DP  RH WIND       PRES   REMARKS
REDMOND        MOSUNNY   59  35  40 NW14      30.24F
BEND           MOSUNNY   55  32  41 VRB3G12   30.24S
PRINEVILLE     MOSUNNY   55  34  44 VRB6G14   30.23F
KLAMATH FALLS  PTSUNNY   58  30  34 NE10G21   30.16F
LAKEVIEW       SUNNY     52  34  50 N16G26    30.17F
HERMISTON      MOSUNNY   69  38  32 VRB7      30.21F
PENDLETON      PTSUNNY   62  37  39 N8        30.22F
JOHN DAY       CLOUDY    52  37  58 NW6       30.22F
MEACHAM        CLOUDY    50  37  61 VRB5      30.24S
LA GRANDE      CLOUDY    57  36  44 NW17G23   30.20F
BAKER CITY     SUNNY     56  37  49 NW25G33   30.19R
BURNS          PTSUNNY   60  32  34 NW16G22   30.14F
ROME             N/A     61  31  32 N18G25    30.07F
ONTARIO          N/A     68  38  33 N24G31    30.09F
$$




USA.gov is the U.S. government's official web portal to all federal, state and local government web resources and services.